HB9EYW-6 Weather Reports


Display with metric or nautical units.
time (UTC)temp
F
wind
direction
speed
MPH
gust
MPH
rain 1hr
in
rain 24hr
in
rain mn
in
humidity
%
barometer
mb
20260902113503 84 253 1.0 8.0 0.00 0.00 0.00 12
20260902113003 84 268 2.0 8.0 0.00 0.00 0.00 12
20260902112503 84 257 3.0 5.0 0.00 0.00 0.00 12
20260902112003 84 271 1.0 6.0 0.00 0.00 0.00 14
20260902111503 84 291 0.0 7.0 0.00 0.00 0.00 13
20260902111003 84 299 2.0 7.0 0.00 0.00 0.00 13
20260902110503 85 300 0.0 4.0 0.00 0.00 0.00 14
20260902110005 85 238 0.0 4.0 0.00 0.00 0.00 14
20260902105503 85 263 1.0 3.0 0.00 0.00 0.00 13
20260902105003 86 281 0.0 2.0 0.00 0.00 0.00 15
20260902104503 85 24 0.0 3.0 0.00 0.00 0.00 16
20260902104003 85 36 0.0 3.0 0.00 0.00 0.00 19
20260902103503 85 27 1.0 3.0 0.00 0.00 0.00 20
20260902103003 84 7 0.0 2.0 0.00 0.00 0.00 21
20260902102503 83 272 0.0 3.0 0.00 0.00 0.00 21
20260902102003 82 305 0.0 3.0 0.00 0.00 0.00 21
20260902101503 83 354 0.0 2.0 0.00 0.00 0.00 23
20260902101003 82 357 0.0 2.0 0.00 0.00 0.00 25
20260902100503 80 317 0.0 2.0 0.00 0.00 0.00 27
20260902100003 80 336 0.0 2.0 0.00 0.00 0.00 27
20260902095503 79 356 1.0 2.0 0.00 0.00 0.00 26
20260902095003 79 29 0.0 4.0 0.00 0.00 0.00 29
20260902094503 78 33 0.0 4.0 0.00 0.00 0.00 29
20260902094003 78 18 0.0 2.0 0.00 0.00 0.00 30
20260902093503 78 301 1.0 3.0 0.00 0.00 0.00 30
20260902093003 77 342 0.0 3.0 0.00 0.00 0.00 32
20260902092503 76 360 2.0 3.0 0.00 0.00 0.00 31
20260902092003 76 311 1.0 2.0 0.00 0.00 0.00 31
20260902091503 75 299 0.0 2.0 0.00 0.00 0.00 33
20260902091003 74 25 0.0 2.0 0.00 0.00 0.00 36
20260902090503 72 94 0.0 2.0 0.00 0.00 0.00 42
20260902090004 72 145 0.0 2.0 0.00 0.00 0.00 42
20260902085503 71 271 0.0 3.0 0.00 0.00 0.00 45
20260902085003 70 277 0.0 3.0 0.00 0.00 0.00 45
20260902084503 69 266 0.0 2.0 0.00 0.00 0.00 45
20260902084003 69 273 0.0 2.0 0.00 0.00 0.00 45
20260902083503 69 209 0.0 2.0 0.00 0.00 0.00 45
20260902083003 68 225 0.0 2.0 0.00 0.00 0.00 45
20260902082503 68 258 0.0 2.0 0.00 0.00 0.00 47
20260902082003 68 285 0.0 2.0 0.00 0.00 0.00 48
20260902081503 68 274 0.0 2.0 0.00 0.00 0.00 48
20260902081003 67 269 0.0 2.0 0.00 0.00 0.00 49
20260902080503 67 249 0.0 2.0 0.00 0.00 0.00 49
20260902080003 67 147 0.0 2.0 0.00 0.00 0.00 49
20260902075503 67 132 0.0 2.0 0.00 0.00 0.00 49
20260902075003 66 139 0.0 2.0 0.00 0.00 0.00 49
20260902074503 66 145 0.0 2.0 0.00 0.00 0.00 49
20260902074003 66 149 1.0 2.0 0.00 0.00 0.00 49
20260902073503 67 154 1.0 2.0 0.00 0.00 0.00 49
20260902073003 67 140 0.0 3.0 0.00 0.00 0.00 49
20260902072503 67 140 0.0 3.0 0.00 0.00 0.00 50
20260902072003 66 118 0.0 2.0 0.00 0.00 0.00 52
20260902071503 66 86 0.0 3.0 0.00 0.00 0.00 53
20260902071003 65 86 1.0 3.0 0.00 0.00 0.00 55
20260902070503 63 100 1.0 2.0 0.00 0.00 0.00 59
20260902070004 63 118 1.0 3.0 0.00 0.00 0.00 59
20260902065503 62 120 1.0 4.0 0.00 0.00 0.00 60
20260902065003 62 124 1.0 4.0 0.00 0.00 0.00 61
20260902064503 62 127 1.0 3.0 0.00 0.00 0.00 62
20260902064003 61 130 0.0 2.0 0.00 0.00 0.00 63
20260902063503 61 146 0.0 3.0 0.00 0.00 0.00 63
20260902063003 61 149 0.0 3.0 0.00 0.00 0.00 63
20260902062503 61 135 0.0 3.0 0.00 0.00 0.00 63
20260902062003 60 125 0.0 3.0 0.00 0.00 0.00 64
20260902061503 61 121 1.0 2.0 0.00 0.00 0.00 64
20260902061003 60 126 0.0 2.0 0.00 0.00 0.00 65
20260902060503 60 129 0.0 2.0 0.00 0.00 0.00 66
20260902060003 60 131 0.0 2.0 0.00 0.00 0.00 66
20260902055503 60 135 1.0 2.0 0.00 0.00 0.00 66
20260902055003 60 135 0.0 2.0 0.00 0.00 0.00 67
20260902054503 59 139 0.0 2.0 0.00 0.00 0.00 67
20260902054003 59 151 0.0 3.0 0.00 0.00 0.00 67
20260902053503 59 142 0.0 3.0 0.00 0.00 0.00 67
20260902053003 59 141 0.0 2.0 0.00 0.00 0.00 67
20260902052503 59 142 0.0 2.0 0.00 0.00 0.00 67
20260902052003 58 141 1.0 2.0 0.00 0.00 0.00 67
20260902051503 59 148 0.0 2.0 0.00 0.00 0.00 67
20260902051003 59 142 0.0 2.0 0.00 0.00 0.00 67
20260902050503 59 135 0.0 2.0 0.00 0.00 0.00 67
20260902050005 59 133 0.0 3.0 0.00 0.00 0.00 67
20260902045503 58 134 1.0 4.0 0.00 0.00 0.00 67
20260902045003 58 134 1.0 4.0 0.00 0.00 0.00 67
20260902044503 58 132 0.0 2.0 0.00 0.00 0.00 67
20260902044003 58 120 1.0 2.0 0.00 0.00 0.00 66
20260902043503 58 119 0.0 2.0 0.00 0.00 0.00 66
20260902043003 59 139 0.0 2.0 0.00 0.00 0.00 66
20260902042503 59 153 0.0 2.0 0.00 0.00 0.00 65
20260902042003 59 147 0.0 2.0 0.00 0.00 0.00 65
20260902041503 59 119 0.0 2.0 0.00 0.00 0.00 65
20260902041003 59 95 1.0 2.0 0.00 0.00 0.00 65
20260902040503 59 112 1.0 3.0 0.00 0.00 0.00 66
20260902040003 59 132 1.0 3.0 0.00 0.00 0.00 66
20260902035503 59 132 1.0 3.0 0.00 0.00 0.00 66
20260902035003 59 134 0.0 2.0 0.00 0.00 0.00 67
20260902034503 59 132 0.0 2.0 0.00 0.00 0.00 67
20260902034003 59 133 0.0 2.0 0.00 0.00 0.00 66
20260902033503 59 140 0.0 2.0 0.00 0.00 0.00 65
20260902033003 59 151 0.0 2.0 0.00 0.00 0.00 65
20260902032503 59 135 0.0 2.0 0.00 0.00 0.00 65
20260902032003 59 128 0.0 2.0 0.00 0.00 0.00 65
20260902031503 59 135 0.0 2.0 0.00 0.00 0.00 65
20260902031003 59 135 0.0 1.0 0.00 0.00 0.00 65
20260902030503 59 135 0.0 2.0 0.00 0.00 0.00 64
20260902030003 59 135 0.0 2.0 0.00 0.00 0.00 64
20260902025503 60 135 1.0 2.0 0.00 0.00 0.00 64
20260902025003 60 135 0.0 2.0 0.00 0.00 0.00 64
20260902024503 60 135 0.0 1.0 0.00 0.00 0.00 64
20260902024003 60 141 0.0 1.0 0.00 0.00 0.00 63
20260902023503 60 138 0.0 2.0 0.00 0.00 0.00 63
20260902023003 60 136 0.0 2.0 0.00 0.00 0.00 63
20260902022503 60 138 0.0 2.0 0.00 0.00 0.00 63
20260902022003 60 143 0.0 2.0 0.00 0.00 0.00 63
20260902021503 60 137 0.0 2.0 0.00 0.00 0.00 62
20260902021003 60 135 0.0 2.0 0.00 0.00 0.00 62
20260902020503 60 134 1.0 2.0 0.00 0.00 0.00 61
20260902020003 60 133 1.0 2.0 0.00 0.00 0.00 61
20260902015503 60 135 0.0 2.0 0.00 0.00 0.00 61
20260902015003 61 132 0.0 2.0 0.00 0.00 0.00 61
20260902014503 60 134 0.0 2.0 0.00 0.00 0.00 60
20260902014003 61 134 0.0 2.0 0.00 0.00 0.00 59
20260902013503 61 131 0.0 2.0 0.00 0.00 0.00 59
20260902013003 61 127 0.0 2.0 0.00 0.00 0.00 59
20260902012503 61 129 0.0 2.0 0.00 0.00 0.00 59
20260902012003 62 135 0.0 2.0 0.00 0.00 0.00 58
20260902011503 62 131 0.0 2.0 0.00 0.00 0.00 58
20260902011003 62 125 1.0 2.0 0.00 0.00 0.00 59
20260902010503 62 140 0.0 2.0 0.00 0.00 0.00 58
20260902010003 62 147 0.0 2.0 0.00 0.00 0.00 58
20260902005503 62 142 1.0 2.0 0.00 0.00 0.00 58
20260902005003 62 133 0.0 2.0 0.00 0.00 0.00 59
20260902004503 62 137 0.0 2.0 0.00 0.00 0.00 59
20260902004003 62 146 0.0 2.0 0.00 0.00 0.00 58
20260902003503 62 130 0.0 2.0 0.00 0.00 0.00 58
20260902003003 62 133 0.0 2.0 0.00 0.00 0.00 58
20260902002503 62 155 0.0 2.0 0.00 0.00 0.00 58
20260902002003 62 143 0.0 2.0 0.00 0.00 0.00 58
20260902001503 62 137 1.0 2.0 0.00 0.00 0.00 58
20260902001003 62 137 1.0 2.0 0.00 0.00 0.00 57
20260902000503 63 135 0.0 2.0 0.00 0.00 0.00 58
20260902000003 63 140 0.0 2.0 0.00 0.00 0.00 58
20260901235503 63 139 0.0 2.0 0.00 0.00 0.00 57
20260901235003 63 135 0.0 2.0 0.00 0.00 0.00 57
20260901234503 63 144 0.0 2.0 0.00 0.00 0.00 57
20260901234003 62 147 0.0 2.0 0.00 0.00 0.00 56
20260901233503 63 135 0.0 2.0 0.00 0.00 0.00 56
20260901233003 63 135 0.0 2.0 0.00 0.00 0.00 55
20260901232503 63 131 0.0 2.0 0.00 0.00 0.00 54
20260901232003 63 135 1.0 2.0 0.00 0.00 0.00 54
20260901231503 64 139 0.0 2.0 0.00 0.00 0.00 54
20260901231003 64 135 0.0 2.0 0.00 0.00 0.00 53
20260901230503 64 140 1.0 2.0 0.00 0.00 0.00 51
20260901230004 64 146 1.0 2.0 0.00 0.00 0.00 51
20260901225503 64 140 0.0 2.0 0.00 0.00 0.00 51
20260901225003 65 135 0.0 2.0 0.00 0.00 0.00 50
20260901224503 65 138 0.0 1.0 0.00 0.00 0.00 50
20260901224003 65 145 0.0 1.0 0.00 0.00 0.00 50
20260901223503 65 160 0.0 1.0 0.00 0.00 0.00 50
20260901223003 65 153 0.0 2.0 0.00 0.00 0.00 50
20260901222503 65 145 0.0 2.0 0.00 0.00 0.00 50
20260901222003 65 139 0.0 2.0 0.00 0.00 0.00 49
20260901221503 66 135 0.0 2.0 0.00 0.00 0.00 48
20260901221003 67 135 1.0 2.0 0.00 0.00 0.00 47
20260901220503 67 140 0.0 2.0 0.00 0.00 0.00 47
20260901220003 67 145 0.0 2.0 0.00 0.00 0.00 47
20260901215503 67 144 0.0 2.0 0.00 0.00 0.00 47
20260901215003 67 140 0.0 2.0 0.00 0.00 0.00 47
20260901214503 67 143 0.0 2.0 0.00 0.00 0.00 47
20260901214003 67 139 0.0 2.0 0.00 0.00 0.00 47
20260901213503 67 139 0.0 1.0 0.00 0.00 0.00 46
20260901213003 67 142 0.0 2.0 0.00 0.00 0.00 46
20260901212503 67 142 0.0 2.0 0.00 0.00 0.00 46
20260901212003 67 0 0.0 0.0 0.00 0.00 0.00 45
20260901211503 67 135 0.0 1.0 0.00 0.00 0.00 46
20260901211003 67 135 0.0 1.0 0.00 0.00 0.00 45
20260901210503 68 135 0.0 2.0 0.00 0.00 0.00 43
20260901210003 68 135 0.0 2.0 0.00 0.00 0.00 43
20260901205503 68 135 1.0 2.0 0.00 0.00 0.00 43
20260901205003 68 135 0.0 2.0 0.00 0.00 0.00 43
20260901204503 68 0 0.0 0.0 0.00 0.00 0.00 42
20260901204003 68 225 0.0 1.0 0.00 0.00 0.00 41
20260901203503 68 155 0.0 2.0 0.00 0.00 0.00 40
20260901203003 69 135 0.0 2.0 0.00 0.00 0.00 40
20260901202503 69 137 1.0 2.0 0.00 0.00 0.00 39
20260901202003 69 142 0.0 2.0 0.00 0.00 0.00 38
20260901201503 69 135 0.0 1.0 0.00 0.00 0.00 38
20260901201003 69 135 0.0 1.0 0.00 0.00 0.00 37
20260901200503 70 137 0.0 2.0 0.00 0.00 0.00 36
20260901200003 70 156 0.0 2.0 0.00 0.00 0.00 36
20260901195503 70 189 0.0 1.0 0.00 0.00 0.00 36
20260901195003 70 180 0.0 1.0 0.00 0.00 0.00 36
20260901194503 71 180 0.0 1.0 0.00 0.00 0.00 35
20260901194003 71 0 0.0 0.0 0.00 0.00 0.00 35
20260901193503 71 180 0.0 1.0 0.00 0.00 0.00 35
20260901193003 71 169 0.0 1.0 0.00 0.00 0.00 34
20260901192503 71 164 0.0 1.0 0.00 0.00 0.00 34
20260901192003 71 153 0.0 2.0 0.00 0.00 0.00 33
20260901191503 72 149 0.0 2.0 0.00 0.00 0.00 33
20260901191003 72 150 0.0 1.0 0.00 0.00 0.00 32
20260901190503 72 135 0.0 2.0 0.00 0.00 0.00 30
20260901190003 72 135 0.0 2.0 0.00 0.00 0.00 30
20260901185503 73 135 0.0 1.0 0.00 0.00 0.00 30
20260901185003 73 0 0.0 0.0 0.00 0.00 0.00 29
20260901184503 74 0 0.0 0.0 0.00 0.00 0.00 28
20260901184003 74 0 0.0 0.0 0.00 0.00 0.00 27
20260901183503 74 0 0.0 0.0 0.00 0.00 0.00 26
20260901183003 74 0 0.0 0.0 0.00 0.00 0.00 24
20260901182503 75 0 0.0 0.0 0.00 0.00 0.00 23
20260901182003 76 225 0.0 1.0 0.00 0.00 0.00 23
20260901181503 76 225 0.0 1.0 0.00 0.00 0.00 22
20260901181003 76 225 0.0 1.0 0.00 0.00 0.00 21
20260901180503 77 227 0.0 1.0 0.00 0.00 0.00 20
20260901180003 77 247 0.0 1.0 0.00 0.00 0.00 20
20260901175503 77 260 0.0 1.0 0.00 0.00 0.00 19
20260901175003 77 225 0.0 1.0 0.00 0.00 0.00 18
20260901174503 78 247 0.0 2.0 0.00 0.00 0.00 17
20260901174003 78 240 0.0 2.0 0.00 0.00 0.00 17
20260901173503 78 253 0.0 2.0 0.00 0.00 0.00 17
20260901173003 78 284 0.0 2.0 0.00 0.00 0.00 16
20260901172503 78 281 1.0 2.0 0.00 0.00 0.00 15
20260901172003 78 252 1.0 4.0 0.00 0.00 0.00 15
20260901171503 78 243 0.0 4.0 0.00 0.00 0.00 14
20260901171003 79 232 1.0 4.0 0.00 0.00 0.00 13
20260901170503 79 235 1.0 4.0 0.00 0.00 0.00 13
20260901170003 79 270 1.0 4.0 0.00 0.00 0.00 13
20260901165503 79 270 2.0 4.0 0.00 0.00 0.00 12
20260901165003 80 268 1.0 4.0 0.00 0.00 0.00 12
20260901164503 80 255 0.0 4.0 0.00 0.00 0.00 12
20260901164003 80 238 2.0 4.0 0.00 0.00 0.00 11
20260901163503 81 243 1.0 3.0 0.00 0.00 0.00 12
20260901163003 81 241 1.0 3.0 0.00 0.00 0.00 11
20260901162503 82 244 1.0 4.0 0.00 0.00 0.00 10
20260901162003 83 264 0.0 4.0 0.00 0.00 0.00 10
20260901161503 84 247 2.0 4.0 0.00 0.00 0.00 10
20260901161003 85 88 0.0 3.0 0.00 0.00 0.00 10
20260901160503 84 134 1.0 5.0 0.00 0.00 0.00 10
20260901160003 84 242 1.0 5.0 0.00 0.00 0.00 10
20260901155503 84 247 2.0 4.0 0.00 0.00 0.00 10
20260901155003 84 247 2.0 4.0 0.00 0.00 0.00 10
20260901154503 84 247 0.0 3.0 0.00 0.00 0.00 10
20260901154003 84 225 0.0 4.0 0.00 0.00 0.00 10
20260901153503 84 224 1.0 4.0 0.00 0.00 0.00 10
20260901153003 84 186 0.0 4.0 0.00 0.00 0.00 10
20260901152503 84 186 0.0 4.0 0.00 0.00 0.00 10
20260901152003 84 269 2.0 4.0 0.00 0.00 0.00 10
20260901151503 84 272 1.0 4.0 0.00 0.00 0.00 10
20260901151003 84 269 0.0 4.0 0.00 0.00 0.00 10
20260901150503 84 281 2.0 4.0 0.00 0.00 0.00 10
20260901150003 84 266 2.0 6.0 0.00 0.00 0.00 10
20260901145503 84 234 3.0 7.0 0.00 0.00 0.00 10
20260901145003 85 241 1.0 7.0 0.00 0.00 0.00 10
20260901144503 87 251 3.0 7.0 0.00 0.00 0.00 10
20260901144003 87 211 0.0 3.0 0.00 0.00 0.00 10
20260901143503 87 263 0.0 4.0 0.00 0.00 0.00 10
20260901143003 86 316 0.0 4.0 0.00 0.00 0.00 10
20260901142503 86 329 1.0 4.0 0.00 0.00 0.00 10
20260901142003 86 252 0.0 4.0 0.00 0.00 0.00 10
20260901141503 85 262 1.0 4.0 0.00 0.00 0.00 10
20260901141003 85 273 0.0 3.0 0.00 0.00 0.00 10
20260901140503 85 273 0.0 3.0 0.00 0.00 0.00 10
20260901140003 85 273 0.0 4.0 0.00 0.00 0.00 10
20260901135503 85 252 0.0 4.0 0.00 0.00 0.00 10
20260901135003 86 258 1.0 5.0 0.00 0.00 0.00 10
20260901134503 86 273 2.0 5.0 0.00 0.00 0.00 10
20260901134003 86 271 1.0 5.0 0.00 0.00 0.00 10
20260901133503 85 278 1.0 5.0 0.00 0.00 0.00 10
20260901133003 86 260 1.0 5.0 0.00 0.00 0.00 10
20260901132503 87 240 2.0 4.0 0.00 0.00 0.00 10
20260901132003 87 279 0.0 4.0 0.00 0.00 0.00 10
20260901131503 86 225 0.0 4.0 0.00 0.00 0.00 10
20260901131003 86 182 0.0 4.0 0.00 0.00 0.00 10
20260901130503 85 222 1.0 7.0 0.00 0.00 0.00 10
20260901130003 85 234 1.0 7.0 0.00 0.00 0.00 10
20260901125503 86 225 4.0 7.0 0.00 0.00 0.00 10
20260901125003 87 256 0.0 4.0 0.00 0.00 0.00 10
20260901124503 86 245 0.0 5.0 0.00 0.00 0.00 10
20260901124003 85 251 1.0 5.0 0.00 0.00 0.00 10
20260901123503 85 227 1.0 4.0 0.00 0.00 0.00 10
20260901123003 85 206 2.0 6.0 0.00 0.00 0.00 10
20260901122503 84 250 2.0 6.0 0.00 0.00 0.00 11
20260901122003 83 252 1.0 5.0 0.00 0.00 0.00 13
20260901121503 82 235 2.0 5.0 0.00 0.00 0.00 14
20260901121003 81 222 2.0 5.0 0.00 0.00 0.00 14
20260901120503 84 266 0.0 4.0 0.00 0.00 0.00 11
20260901120003 84 306 0.0 4.0 0.00 0.00 0.00 11
20260901115503 85 282 0.0 4.0 0.00 0.00 0.00 12
20260901115003 84 271 2.0 6.0 0.00 0.00 0.00 11
20260901114503 84 258 0.0 6.0 0.00 0.00 0.00 12
20260901114003 84 270 0.0 4.0 0.00 0.00 0.00 12